Location: Dittelspoint
(48.7198°N, 10.7214°E)
Time: 11:07:34
(UTC+00:00)

SPOT 3 Rocket - Pass Details

Date: 09 April 2020
Orbit: 778 x 795 km, 98.8° (Epoch: 25 May)

Event Time Altitude Azimuth Distance (km) Brightness Sun altitude
Exits shadow 19:22:44 - 168° (SSE) 2,701 5.9 -13.5°
Reaches altitude 10° 19:23:36 10° 169° (S) 2,355 5.6 -13.6°
Maximum altitude 19:28:48 78° 255° (WSW) 815 3.7 -14.3°
Drops below altitude 10° 19:34:02 10° 343° (NNW) 2,363 6.8 -15.1°
Sets 19:36:22 0° 345° (NNW) 3,294 7.5 -15.4°
